STARLINK-1309, 45414

Orbit data source: Space-Track

STARLINK-1309, 45414 is a payload satellite owned by SpaceX/Seattle (US) in LEO that was launched on Wed, 18 Mar 2020 UTC via an FALCON 9 launch vehicle from the Air Force Eastern Test Range (AFETR). Payload-class satellites include a variety of spacecraft equipped with specific instruments for various scientific and technological missions. These include communications satellites like Starlink; space stations such as the ISS; scientific satellites like the Hubble; Earth observation satellites from companies like Planet Labs, Umbra, and HawkEye 360; GPS; miniature CubeSats for education and research; and military/defense satellites.

Not visible in the next 10 days
Identifier
45414, 2020-019BG
Orbit
LEO
Country
Flag of USUS
Related business
Manufacturer
SpaceX/Seattle
Mission
Partially operational Commercial Communications
Bus & Motor
STARLINK, Unknown motor
Mass
260 kg wet, ~248 kg dry
Launch date (UTC)
2020-03-18 (6 years ago)
Launch vehicle
FALCON 9
Launch site
Air Force Eastern Test Range (AFETR)
Object type
Payload
Rocket body
Debris
Shape & HBR
Box + 1 Pan, 10.1 m
Radar Cross Section
13.562 m², Large (>1 m²)

Expand to show TLE details & history
Last TLE update: 2 days ago

TLE from 2 days ago
0 STARLINK-1309
1 45414U 20019BG  26171.50003471  .01219977  00000-0  81672-2 0  9999
2 45414  53.0607 340.3973 0001550  89.4379   3.7763 15.72171036  6017
Epoch: 2026-06-20T12:00Z
TLE epoch observation values (Epoch: 2026-06-20T12:00:02.998Z)
Latitude
53.09566°
Longitude
-12.98249°
Altitude
358.146 km
Speed
7.701 km/s
True Right ascension
05h 02m 58s
True Declination
52° 55' 14"
Sunlit
Object was in daylight at epoch
Visualization orbit readout
Latitude
Unknown
Longitude
Unknown
Altitude
Unknown
Speed
Unknown
Apparent Right ascension
Unknown
Apparent Declination
Unknown
Sunlit
N/A
Visualization observer readout
Local Sidereal Time
21:55:07
Azimuth
Unknown
Elevation
Unknown
Doppler factor
Unknown
Orbital elements
Apogee altitude
354.014 km
Perigee altitude
351.927 km
Semi-major axis
6,731.108 km
Eccentricity
0.00016
Inclination
53.0607°
RAAN
340.3973°
Arg. of periapsis
89.4379°
True anomaly
3.77747°
Mean anomaly
3.7763°
Eccentric anomaly
3.77688°
Mean motion
3.93019 °/min
Orbital period
91.6 mins
BSTAR
0.0081672
Loading maneuver chart data...
Computing Atmospheric mass density...

Documentation

Showing up to 5 results
|